Regional Weather Roundup
Issued by NWS

Home | Current Version | Previous Version | Text Only | Print | Product List | Glossary Off
Versions: 1 2 3 4 5 6 7 8 9 10 11 12 13 14 15 16 17 18 19 20 21 22 23 24 25 26 27 28 29 30 31 32 33 34 35 36 37 38 39 40 41 42 43 44 45 46 47 48 49 50

000
ASUS43 KLSX 200507
RWRMO

WEATHER SUMMARY FOR MISSOURI
NATIONAL WEATHER SERVICE SPRINGFIELD MO
1200 AM CDT WED SEP 20 2017

NOTE: "FAIR" INDICATES FEW OR NO CLOUDS BELOW 12,000 FEET WITH NO
       SIGNIFICANT WEATHER AND/OR OBSTRUCTIONS TO VISIBILITY.
       CURRENT SKY AND/OR WEATHER CONDITIONS ARE NOT AVAILABLE FOR
       CHILLICOTHE AND FARMINGTON.

MOZ001>031-035>038-043-044-053-054-200600-
...NORTHERN AND WESTERN MISSOURI...

CITY           SKY/WX    TMP DP  RH WIND       PRES   REMARKS
KANSAS CTY INT CLEAR     78  68  71 S16       29.75R
KANSAS C DTWN  CLEAR     81  69  67 S14G23    29.74R
LEE`S SUMMIT   CLEAR     77  68  73 S16G26    29.77R
ST JOSEPH      CLEAR     79  70  74 S16G25    29.71S
CHILLICOTHE      N/A     76  69  79 S5        29.78R
KIRKSVILLE     CLEAR     73  67  81 S12       29.80F

$$
MOZ066>068-077>081-088>096-101>105-200600-
...SOUTHWEST MISSOURI...

CITY           SKY/WX    TMP DP  RH WIND       PRES   REMARKS
SPRINGFIELD    CLEAR     76  68  76 S12       29.86S
JOPLIN         CLEAR     75  70  84 S10       29.83S
BRANSON        PTCLDY    73  68  83 CALM      29.90S

$$
MOZ032>034-039>042-045>050-055>058-069>072-200600-
...CENTRAL MISSOURI...

CITY           SKY/WX    TMP DP  RH WIND       PRES   REMARKS
COLUMBIA       CLEAR     75  67  76 S10       29.84S
JEFFERSON CITY CLEAR     77  66  68 SE6       29.82S
ROLLA          CLEAR     76  67  73 S12       29.88S
SEDALIA        CLEAR     76  69  79 S12       29.82S
WHITEMAN AFB   PTCLDY    74  74 100 S12       29.78S
WARRENSBURG    CLEAR     75  64  69 S9        29.79R
OSAGE BEACH    CLEAR     75  66  73 S6        29.85S

$$
MOZ051-052-059>065-200600-
...EAST CENTRAL MISSOURI...

CITY           SKY/WX    TMP DP  RH WIND       PRES   REMARKS
ST LOUIS INTL  CLEAR     79  69  71 SE12      29.87F
SPIRIT OF STL  CLEAR     74  69  85 SE3       29.85F
ST CHARLES     CLEAR     70  67  90 E3        29.85F

$$
MOZ072>076-082>087-097>100-106>115-200600-
...SOUTH CENTRAL AND SOUTHEAST MISSOURI...

CITY           SKY/WX    TMP DP  RH WIND       PRES   REMARKS
CAPE GIRARDEAU CLEAR     73  69  87 S6        29.90S
FARMINGTON     CLEAR     73  67  81 VRB3      29.92R
POPLAR BLUFF   CLEAR     70  69  97 CALM      29.90R
WEST PLAINS    CLEAR     75  68  78 S6        29.93S

$$



USA.gov is the U.S. government's official web portal to all federal, state and local government web resources and services.